Reflectivity
-20 -20 -20 -20 -20 -20 -20 -20 -20 -20 -20 -20 -20 -20 -20 -20 -20 -20 -20 -20 -20 -20 -20 -20 -20 -20 -20 -20 -20 -20 -20 -20 -20 -20 -20 -20 -20 -20 -20 -20 -20 -20 -20
-20 -20 -20 -20 -20 -20 -20 -20 -20 -20 -20 -20 -20 -20 -20 -20 -20 -20 -20 -20 -20 -20 -20 -20 -20 -20 -20 -20 -20 -20 -20 -20 -20 -20 -20 -20 -20 -20 -20 -20 -20 -20 -20
-20 -20 -20 -20 -20 -20 -20 -20 -20 -20 -20 -20 -20 -20 -20 -20 -20 -20 -20 -20 -20 -20 -20 -10 -20 -20 -20 -20 -20 -20 -20 -20 -20 -20 -20 -20 -20 -20 -20 -20 -20 -20 -20
-20 -20 -20 -20 -20 -20 -20 -20 -20 -20 -20 -20 -20 -20 -20 -20 -20 -20 -20 -20 -20 -20 -12 -10 -20 -20 -20 -20 -20 -20 -20 -20 -20 -20 -20 -20 -20 -20 -20 -20 -20 -20 -20
-20 -20 -20 -20 -20 -20 -20 -20 -20 -20 -20 -20 -20 -20 -20 -20 -20 -20 -20 -20 -20 -20 -20 -20 -20 -20 -20 -20 -20 -20 -20 -20 -20 -20 -20 -20 -20 -20 -20 -20 -20 -20 -20
-20 -20 -20 -20 -20 -20 -20 -20 -20 -20 -20 -20 -20 -20 -20 -20 -20 -20 -20 -20 -20 -20 -20 -20 -20 -20 -20 -20 -20 -20 -20 -20 -20 -20 -20 -20 -20 -20 -20 -20 -20 -20 -20
-20 -20 -20 -20 -20 -20 -20 -20 -20 -20 -20 -20 -20 -20 -20 -20 -20 -20 -20 -20 -20 -20 -20 -20 -20 -20 -20 -20 -20 -20 -20 -20 -20 -20 -20 -20 -20 -20 -20 -20 -20 -20 -20
-20 -20 -20 -20 -20 -20 -20 -20 -20 -20 -20 -20 -20 -20 -20 -20 -20 -20 -20 -20 -20 -20 -20 -20 -20 -20 -20 -20 -20 -20 -20 -20 -20 -20 -20 -20 -20 -20 -20 -19 -16 -17 -20
-20 -20 -20 -20 -20 -20 -20 -20 -20 -20 -20 -20 -20 -20 -20 -20 -20 -20 -20 -20 -20 -20 -20 -20 -20 -20 -20 -20 -20 -20 -20 -20 -20 -20 -20 -20 -18 -6 -12 -20 -17 7 8
-20 -20 -20 -20 -20 -20 -20 -20 -20 -20 -20 -20 -20 -20 -20 -20 -20 -20 -20 -20 -20 -20 -20 -20 -20 -20 -20 -20 -20 -20 -20 -20 -20 -20 -20 -20 -13 2 -12 -7 -16 6 13
-20 -20 -20 -20 -20 -20 -20 -20 -20 -20 -20 -20 -20 -20 -20 -20 -20 -20 -20 -20 -20 -20 -20 -20 -20 -20 -20 -20 -20 -20 -20 -20 -20 -20 -3 6 2 0 -20 12 -7 -20 -12
-20 -20 -20 -20 -20 -20 -20 -20 -20 -20 -20 -20 -20 -20 -20 -20 -20 -20 -20 -20 -20 -20 -20 -20 -20 -20 -20 -20 -20 -20 -20 -20 -20 -20 -15 8 -20 -6 9 5 8 4 1
-20 -20 -20 -20 -20 -20 -20 -20 -20 -20 -20 -20 -20 -20 -20 -20 -20 -20 -20 -16 -13 9 -20 -20 -20 -20 -20 -20 -20 -20 -20 -20 -20 -20 -20 -11 -17 -9 -1 -20 -20 -8 -8
-20 -20 -20 -20 -20 -20 -20 -20 -20 -20 -20 -20 -20 -16 3 -18 -6 12 34 28 23 -5 -20 -20 -20 -20 -20 -20 -20 -20 -20 -20 -20 -20 -12 -20 -20 -20 -20 -20 1 -20 -20
-20 -20 -20 -20 -20 -20 -20 -20 -20 -20 -20 -20 -17 14 13 28 31 28 13 11 -20 -20 -20 -17 -20 -20 -20 -16 -20 -20 -20 -20 -20 -20 -20 -20 -20 7 1 -16 -20 -20 -20
-20 -20 -20 -20 -20 -20 -20 -20 -20 -20 -20 -20 -11 2 37 38 25 5 -2 -17 -14 -20 -20 -10 -17 3 -20 -20 -20 -20 -20 -20 -10 -20 -20 -20 8 2 7 -11 -20 -20 -20
-20 -20 -20 -20 -20 -20 -20 -20 -20 -20 10 -18 14 15 33 24 -13 9 -11 -20 -20 -19 21 20 -2 -20 -20 -20 -20 -20 -18 -16 -20 -20 -20 -13 -5 -1 -20 5 -20 -20 -15
-20 -20 -20 -20 -20 -20 -20 -20 -20 -10 10 -20 -20 4 6 17 21 -8 -16 -18 10 19 2 -18 -20 -20 -20 -20 -20 -20 -20 -17 -20 -20 -10 -3 -1 -14 -20 -20 -20 -20 -20
-20 -20 -20 -20 -20 -20 -20 -20 -15 -9 -20 -20 -20 -20 -20 -19 15 -20 -20 4 -5 -14 -12 -14 -20 -20 -20 -20 -20 -20 -19 -20 -20 -20 -18 -5 -4 -20 -20 -20 -20 -20 -20
-20 -20 -20 -20 -20 -20 -19 -20 -20 11 -11 -20 -20 13 3 13 30 29 22 4 -20 -20 -20 -20 -20 -20 -20 -20 -20 -20 -20 -20 -18 -20 -20 -11 -20 -20 -20 -20 -20 -20 -20
-20 -20 -20 -20 -20 -20 -20 4 -2 0 -10 -20 -18 4 8 22 38 26 15 -20 -20 -20 -20 -20 -20 -20 -20 -20 -20 -20 -20 -16 -13 -19 -20 -20 -20 -20 -20 -20 -20 -20 -20
-20 -20 -20 -20 -20 -20 -20 -20 -20 -2 -5 -6 6 14 25 34 29 27 15 -20 -20 -20 -20 -20 -20 -20 -20 -20 -20 -20 -20 -3 -20 -20 -20 -20 -20 -20 -20 -20 -17 -17 -20
-20 -20 -20 -20 -20 -20 -20 -20 -9 -0 6 14 23 33 33 30 22 14 1 -20 -20 -20 -20 -20 -20 -20 -20 -20 -20 -20 -20 -20 -20 -20 -20 -20 -20 -20 -18 -4 -19 -20 -20
-20 -20 -20 -20 -20 -16 -20 -13 7 21 22 26 28 33 31 16 16 1 -2 -19 -18 -20 -20 -20 -20 -20 -20 -20 -20 -20 -20 -20 -20 -20 -20 -20 -20 -18 -8 -5 -20 -20 -20
-20 -20 -20 -20 -20 -20 -20 -11 17 27 26 27 28 30 -6 10 1 -3 16 -5 -20 -20 -20 -20 -20 -20 -20 -20 -20 -20 -20 -20 -20 -20 -20 -13 2 -12 -20 -20 -20 -20 -20
-20 -20 -20 -20 -20 -20 -20 -20 -20 -17 8 16 19 24 10 -4 -16 -20 1 -15 -19 -3 -14 -20 -20 -20 -20 -20 -20 -20 -20 -20 -20 -20 -20 -20 -20 -20 -20 -20 -20 -20 -20
Wind_Speed
4 5 7 11 11 11 10 11 11 11 8 5 5 5 4 4 3 3 4 4 3 4 3 2 2 1 1 2 2 0 1 1 3 4 2 1 1 2 3 3 3 4 4
6 4 8 11 12 12 12 12 11 11 8 6 4 2 4 3 3 3 4 4 5 4 4 3 3 3 2 3 4 3 0 1 4 2 1 3 3 1 1 2 3 4 3
10 6 4 10 11 11 11 11 10 9 8 7 5 4 4 4 4 4 3 4 4 5 5 5 4 3 3 3 4 4 5 3 3 5 3 2 1 1 2 1 2 3 2
8 7 4 8 11 11 10 10 10 10 8 9 8 9 6 5 4 4 4 4 3 5 5 6 4 3 4 4 4 4 4 4 3 0 3 3 4 3 2 4 3 4 5
7 8 4 4 8 9 9 9 9 10 8 9 7 6 5 4 5 5 7 5 3 4 4 4 4 4 3 4 4 4 4 3 3 3 3 2 2 2 1 3 0 3 5
7 6 5 1 6 7 7 7 9 10 10 9 8 8 7 7 6 7 6 6 4 4 3 4 4 3 3 3 3 3 3 3 3 2 2 3 3 4 2 2 5 6 4
6 5 4 4 5 6 7 7 9 10 9 9 8 8 7 8 9 8 6 6 5 4 5 3 3 3 3 2 2 3 3 3 3 3 3 3 3 3 3 3 4 4 6
4 4 4 4 6 8 9 9 9 9 9 9 8 7 7 6 5 6 5 5 4 4 4 4 3 3 2 1 2 1 2 3 2 3 3 3 2 2 2 3 3 5 4
3 3 3 3 4 7 10 11 11 11 10 9 8 8 7 7 6 7 6 4 5 4 4 4 4 3 2 2 2 1 2 2 2 3 3 3 2 1 3 3 3 4 3
3 2 1 1 3 4 7 9 10 11 10 9 8 7 7 7 7 7 7 7 5 4 4 4 4 3 2 2 1 1 1 2 2 2 3 4 3 3 3 4 5 5 5
5 4 4 4 5 4 6 8 10 10 9 8 8 8 7 7 7 6 7 7 6 5 3 3 4 4 3 2 2 2 2 2 2 2 1 3 3 3 3 3 3 4 5
8 7 6 6 7 6 7 8 9 9 9 9 8 8 8 8 7 6 7 7 6 4 4 4 3 3 2 1 1 1 1 2 3 4 3 3 3 4 3 1 4 4 4
10 8 9 9 8 8 6 7 8 9 9 8 8 8 8 7 7 7 6 5 5 5 4 3 3 2 1 0 1 3 3 3 3 4 4 4 4 3 2 3 3 3 4
10 11 12 12 9 6 6 6 8 8 8 8 9 8 7 7 6 6 4 6 6 6 6 4 1 1 2 2 1 2 3 4 4 3 2 2 3 4 3 2 3 4 4
10 9 9 9 7 6 6 7 8 8 8 9 8 7 6 6 6 6 6 7 6 5 4 3 2 2 1 2 3 3 3 5 4 2 2 2 3 4 5 3 5 6 4
8 6 6 6 6 5 6 7 8 8 10 10 9 9 9 7 7 7 7 8 7 5 2 3 1 1 1 3 4 4 4 4 3 2 1 2 1 2 7 8 10 9 6
5 4 5 5 5 4 5 7 8 9 10 10 9 9 8 7 7 8 8 7 6 5 4 3 3 2 2 3 3 3 4 3 3 2 1 1 1 1 4 4 6 10 11
2 1 4 6 6 6 6 7 6 9 9 9 10 10 10 9 9 9 9 7 5 4 4 4 3 1 2 3 5 3 4 2 1 2 1 2 2 4 4 2 5 6 7
2 1 3 4 6 6 6 7 6 8 9 10 10 10 10 9 9 8 7 5 5 5 4 2 1 1 2 2 3 4 3 1 1 2 0 1 1 7 2 3 4 4 4
4 2 1 2 5 7 7 6 5 6 8 8 8 8 8 9 7 6 6 5 5 4 2 1 1 1 2 3 0 2 1 1 1 2 4 4 4 5 2 1 4 3 2
5 3 2 4 5 7 8 5 4 5 6 6 8 9 8 7 4 6 5 6 5 4 2 1 2 2 2 4 1 3 2 2 2 2 3 5 8 7 5 4 3 3 4
5 3 4 5 6 7 6 5 5 3 6 8 9 9 9 6 5 6 5 5 5 5 3 2 2 2 3 2 2 2 4 7 3 3 5 7 9 8 8 7 7 4 2
5 4 6 6 6 6 6 7 6 6 8 9 9 8 6 5 5 5 6 4 4 3 2 1 1 1 2 2 2 8 8 5 4 6 10 10 8 8 7 7 4 3 2
7 6 6 5 6 5 6 7 8 8 7 8 7 4 3 5 4 2 2 2 2 2 2 2 2 2 2 2 3 5 4 7 7 10 6 5 5 5 4 3 3 3 3
7 6 5 5 6 6 6 6 5 5 5 4 4 3 4 5 5 4 3 3 3 2 2 2 1 1 2 2 2 3 5 5 5 7 5 2 2 2 2 2 3 3 3
8 6 6 6 5 5 5 4 2 0 3 4 3 3 2 2 3 4 3 6 6 3 5 5 3 2 3 2 2 4 4 7 12 4 3 3 2 2 1 1 2 3 3
Wind_Direction
335 286 242 204 194 192 180 174 170 172 166 174 169 160 154 132 114 88 84 80 71 61 57 74 87 16 51 70 348 264 6 69 350 284 137 108 107 97 83 62 43 43 58
345 314 243 215 201 190 185 183 183 176 182 174 171 178 142 131 102 98 88 84 92 63 83 62 60 33 84 62 42 359 238 55 30 348 301 181 171 137 69 62 49 62 56
342 339 256 216 204 200 194 188 183 183 180 170 144 143 115 135 149 139 123 81 86 81 79 67 64 50 44 51 47 29 6 20 45 32 340 221 139 329 129 196 62 25 3
352 349 317 211 198 197 195 191 180 183 180 169 180 177 183 178 166 146 123 118 84 87 74 75 68 59 52 38 41 29 14 343 29 141 24 19 6 325 193 166 178 45 344
8 357 358 211 195 187 190 192 185 183 184 188 200 189 196 146 150 148 146 134 136 96 88 86 83 75 74 60 31 17 24 23 9 9 3 3 27 357 323 317 67 28 19
13 36 31 148 173 169 191 199 194 191 185 197 203 203 186 168 166 164 164 155 171 136 100 115 98 86 79 66 46 26 23 20 16 7 15 359 353 355 343 318 333 323 321
17 34 61 134 167 183 198 201 203 202 196 200 202 210 195 185 180 175 174 161 165 156 142 114 105 91 76 71 50 36 2 14 3 358 360 348 347 359 329 305 292 292 308
59 71 91 133 167 186 198 209 217 212 207 202 200 202 193 183 177 177 174 172 164 145 159 131 122 111 89 71 75 72 346 331 338 329 335 334 338 317 302 283 305 304 291
92 62 91 119 184 196 207 212 209 213 205 204 194 186 187 175 169 162 157 159 140 148 162 137 131 119 133 66 31 59 308 309 313 298 304 311 296 270 240 232 232 258 296
170 171 211 229 234 228 222 219 220 215 204 195 189 180 175 174 158 159 150 156 143 148 152 138 142 149 142 121 103 96 252 283 278 285 281 286 293 268 235 229 235 236 259
211 218 238 244 248 244 232 220 217 213 200 193 182 170 162 160 159 160 155 153 149 153 152 152 163 143 148 135 174 188 238 266 293 281 289 293 301 308 326 318 302 267 254
220 226 237 258 267 249 237 221 211 208 195 187 174 162 160 159 158 155 152 150 142 142 149 158 155 145 128 160 211 232 264 309 303 309 307 295 300 288 277 307 288 291 310
252 248 248 267 257 261 241 225 209 198 191 173 168 155 160 160 149 144 141 127 126 135 142 151 151 143 106 70 43 354 320 301 310 311 308 314 318 307 343 303 305 300 289
280 281 289 287 276 247 233 213 201 192 180 172 161 153 151 149 149 140 162 160 166 162 143 125 177 168 79 42 21 343 319 316 306 312 330 344 335 349 342 315 348 322 311
292 281 291 295 272 233 218 205 193 177 174 162 150 156 142 149 160 181 164 162 181 169 124 143 180 53 334 41 7 343 346 303 302 317 7 28 16 357 40 12 16 346 321
280 283 305 303 268 238 216 201 192 178 177 174 159 162 167 182 161 174 171 174 165 127 143 194 187 205 197 29 6 12 320 304 318 334 53 52 10 62 72 62 57 40 4
275 296 320 332 333 296 243 221 203 184 191 180 165 161 166 174 161 173 169 162 160 160 179 190 213 214 123 19 356 37 318 322 356 355 359 280 143 152 106 85 87 61 50
240 316 351 341 338 319 297 254 212 190 195 187 178 173 175 167 181 173 169 164 168 164 181 193 201 207 106 14 343 5 333 336 9 7 329 282 225 174 144 168 80 67 47
119 44 348 345 345 343 313 274 235 196 191 192 187 179 172 167 178 159 161 164 168 174 177 160 178 241 207 56 334 337 7 19 40 339 282 204 286 128 138 124 113 113 103
145 137 43 21 14 348 334 284 255 204 201 191 177 169 158 156 154 156 173 175 176 156 148 153 193 63 241 135 55 273 96 92 124 200 134 80 80 118 117 188 150 131 124
153 165 46 29 9 351 334 306 266 199 190 152 143 142 128 132 172 177 166 160 156 148 165 174 177 208 200 163 166 228 123 148 147 124 111 78 79 88 84 51 65 121 143
154 123 70 51 28 14 1 14 2 95 126 141 136 121 131 160 168 154 154 162 166 159 164 166 173 175 185 171 111 87 121 159 137 116 86 82 80 86 94 93 108 106 94
138 110 99 77 49 46 45 51 31 73 98 108 113 124 127 137 177 175 166 162 166 149 146 153 179 164 168 147 139 136 145 166 112 83 89 99 96 107 90 90 82 53 39
144 135 133 119 96 78 67 71 64 70 76 87 94 119 168 157 167 146 146 158 161 186 175 197 215 168 177 169 166 139 149 122 108 117 122 119 109 101 124 111 62 45 36
147 153 137 121 107 115 95 92 102 106 112 132 148 167 175 181 172 162 183 225 246 245 201 194 214 209 192 158 161 176 168 174 165 137 133 144 167 184 137 107 84 72 55
148 145 133 123 112 106 114 119 95 243 218 172 145 166 205 195 188 169 194 231 256 252 251 253 237 200 235 167 188 209 242 167 160 159 159 182 195 219 204 197 118 80 72